logo tempoitalia

Diretta Meteo Gyor Per, Ungherialunedì 31 agosto ore 06:45

Mappa
Sereno 16 °C Sereno 24 Ore: T.min 15 T.max 32
Ponente Nord Km/h 5.5 Punto di rugiada: 11 °C Umidità: 72% Visibilità: 10 Km
Il sole sorge alle: 06:06 Il sole tramonta alle: 19:32
31 Agosto 2026 06:45 tempo osservato: Sereno Sereno 16 72 1015 vento: Nord N 5.5
31 Agosto 2026 06:15 tempo osservato: Sereno Sereno 15 72 1015 vento: Nord E 7.4
31 Agosto 2026 05:45 tempo osservato: Sereno Sereno 15 76 1015 vento: Nord E 7.4
31 Agosto 2026 05:15 tempo osservato: Sereno Sereno 16 72 1015 vento: Nord SE 9.3
31 Agosto 2026 04:45 tempo osservato: Sereno Sereno 16 72 1015 vento: Nord N 3.7
31 Agosto 2026 04:15 tempo osservato: Sereno Sereno 16 72 1015 vento: Nord SE 9.3
31 Agosto 2026 03:45 tempo osservato: Sereno Sereno 16 67 1015 vento: Nord N 5.5
31 Agosto 2026 03:15 tempo osservato: Sereno Sereno 16 67 1015 vento: Nord N 3.7
31 Agosto 2026 02:45 tempo osservato: Sereno Sereno 16 67 1015 vento: Nord N 5.5
31 Agosto 2026 02:15 tempo osservato: Sereno Sereno 16 67 1015 vento: Nord E 7.4
31 Agosto 2026 01:45 tempo osservato: Sereno Sereno 17 63 1015 vento: Nord E 7.4
31 Agosto 2026 01:15 tempo osservato: Sereno Sereno 18 59 1015 vento: Nord SE 7.4
31 Agosto 2026 00:45 tempo osservato: Sereno Sereno 18 59 1015 vento: Nord N 1.8
31 Agosto 2026 00:15 tempo osservato: Sereno Sereno 19 59 1016 vento: Nord N 0
30 Agosto 2026 23:45 tempo osservato: Sereno Sereno 19 59 1016 vento: Nord N 5.5
30 Agosto 2026 23:15 tempo osservato: Sereno Sereno 19 55 1016 vento: Nord N 3.7
30 Agosto 2026 22:45 tempo osservato: Sereno Sereno 19 55 1015 vento: Nord N 0
30 Agosto 2026 22:15 tempo osservato: Sereno Sereno 21 52 1015 vento: Nord N 3.7
30 Agosto 2026 21:45 tempo osservato: Sereno Sereno 22 49 1015 vento: Nord N 3.7
30 Agosto 2026 21:15 tempo osservato: Sereno Sereno 23 46 1015 vento: Nord SE 7.4
30 Agosto 2026 20:45 tempo osservato: Sereno Sereno 24 43 1015 vento: Nord N 5.5
30 Agosto 2026 20:15 tempo osservato: Sereno Sereno 26 39 1015 vento: Nord N 5.5
30 Agosto 2026 19:45 tempo osservato: Sereno Sereno 25 41 1015 vento: Nord NE 7.4
30 Agosto 2026 19:15 tempo osservato: Sereno Sereno 29 32 1015 vento: Nord N/NE 9.3
30 Agosto 2026 18:45 tempo osservato: Sereno Sereno 31 29 1015 vento: Nord O/NO 7.4
30 Agosto 2026 18:15 tempo osservato: Sereno Sereno 31 29 1015 vento: Nord NO 7.4
30 Agosto 2026 17:45 tempo osservato: Sereno Sereno 31 29 1015 vento: Nord N 7.4
30 Agosto 2026 17:15 tempo osservato: Sereno Sereno 32 27 1015 vento: Nord O 9.3
30 Agosto 2026 16:45 tempo osservato: Sereno Sereno 32 25 1015 vento: Nord N 5.5
30 Agosto 2026 16:15 tempo osservato: Sereno Sereno 32 25 1015 vento: Nord N 9.3
30 Agosto 2026 15:45 tempo osservato: Sereno Sereno 32 25 1015 vento: Nord N 11.1
30 Agosto 2026 15:15 tempo osservato: Sereno Sereno 31 27 1016 vento: Nord N 13
30 Agosto 2026 14:45 tempo osservato: Sereno Sereno 31 27 1016 vento: Nord N 13
30 Agosto 2026 14:15 tempo osservato: Sereno Sereno 31 27 1016 vento: Nord N 9.3
30 Agosto 2026 13:45 tempo osservato: Sereno Sereno 30 28 1016 vento: Nord N 7.4
30 Agosto 2026 13:15 tempo osservato: Sereno Sereno 30 28 1016 vento: Nord N 7.4
30 Agosto 2026 12:45 tempo osservato: Sereno Sereno 30 28 1017 vento: Nord N 9.3
30 Agosto 2026 12:15 tempo osservato: Sereno Sereno 30 28 1017 vento: Nord N 11.1
30 Agosto 2026 11:45 tempo osservato: Sereno Sereno 29 32 1017 vento: Nord N 7.4
30 Agosto 2026 11:15 tempo osservato: Sereno Sereno 28 34 1017 vento: Nord N 7.4
30 Agosto 2026 10:45 tempo osservato: Sereno Sereno 28 34 1017 vento: Nord N 3.7
30 Agosto 2026 10:15 tempo osservato: Sereno Sereno 27 36 1017 vento: Nord N 3.7
30 Agosto 2026 09:45 tempo osservato: Sereno Sereno 26 41 1017 vento: Nord N 5.5
30 Agosto 2026 09:15 tempo osservato: Sereno Sereno 24 50 1017 vento: Nord N 5.5
30 Agosto 2026 08:45 tempo osservato: Sereno Sereno 22 53 1017 vento: Nord N 5.5
30 Agosto 2026 08:15 tempo osservato: Sereno Sereno 19 59 1017 vento: Nord N 3.7
30 Agosto 2026 07:45 tempo osservato: Sereno Sereno 17 63 1017 vento: Nord N 1.8